TimeEST,TemperatureF,Dew PointF,Humidity,Sea Level PressureIn,VisibilityMPH,Wind Direction,Wind SpeedMPH,Gust SpeedMPH,PrecipitationIn,Events,Conditions,WindDirDegrees,DateUTC
12:53 AM,64.0,60.1,87,30.17,10.0,SE,9.2,-,N/A,,Clear,130,2013-02-11 05:53:00
1:53 AM,63.0,59.0,87,30.17,10.0,ESE,6.9,-,N/A,,Clear,120,2013-02-11 06:53:00
2:53 AM,62.1,59.0,90,30.14,10.0,SE,6.9,-,N/A,,Clear,130,2013-02-11 07:53:00
3:53 AM,62.1,59.0,90,30.13,10.0,SE,9.2,-,N/A,,Clear,130,2013-02-11 08:53:00
4:53 AM,62.1,59.0,90,30.13,10.0,SE,8.1,-,N/A,,Clear,130,2013-02-11 09:53:00
5:53 AM,63.0,60.1,90,30.14,10.0,SE,9.2,-,N/A,,Clear,140,2013-02-11 10:53:00
6:53 AM,62.1,59.0,90,30.17,10.0,East,5.8,-,N/A,,Clear,100,2013-02-11 11:53:00
7:53 AM,62.1,60.1,93,30.18,10.0,ESE,6.9,-,N/A,,Clear,110,2013-02-11 12:53:00
8:53 AM,68.0,62.1,81,30.18,10.0,SE,12.7,-,N/A,,Clear,140,2013-02-11 13:53:00
9:53 AM,73.9,62.1,66,30.19,10.0,SE,15.0,-,N/A,,Clear,140,2013-02-11 14:53:00
10:53 AM,78.1,62.1,58,30.19,10.0,SSE,13.8,21.9,N/A,,Clear,160,2013-02-11 15:53:00
11:53 AM,80.1,63.0,56,30.17,10.0,South,11.5,-,N/A,,Clear,190,2013-02-11 16:53:00
12:53 PM,79.0,64.0,60,30.15,10.0,South,16.1,-,N/A,,Scattered Clouds,180,2013-02-11 17:53:00
1:53 PM,80.1,64.0,58,30.12,10.0,South,16.1,24.2,N/A,,Clear,190,2013-02-11 18:53:00
2:53 PM,79.0,64.9,62,30.10,10.0,South,18.4,25.3,N/A,,Clear,190,2013-02-11 19:53:00
3:53 PM,78.1,66.0,66,30.09,10.0,South,15.0,25.3,N/A,,Clear,180,2013-02-11 20:53:00
4:53 PM,75.9,66.0,71,30.09,10.0,South,15.0,-,N/A,,Clear,190,2013-02-11 21:53:00
5:53 PM,73.9,64.9,73,30.09,10.0,South,11.5,-,N/A,,Clear,190,2013-02-11 22:53:00
6:53 PM,72.0,66.0,81,30.09,10.0,South,8.1,-,N/A,,Clear,190,2013-02-11 23:53:00
7:53 PM,71.1,66.0,84,30.09,10.0,South,10.4,-,N/A,,Clear,190,2013-02-12 00:53:00
8:53 PM,70.0,66.0,87,30.10,10.0,South,8.1,-,N/A,,Clear,180,2013-02-12 01:53:00
9:53 PM,70.0,66.0,87,30.11,10.0,South,6.9,-,N/A,,Clear,180,2013-02-12 02:53:00
10:53 PM,70.0,66.0,87,30.11,10.0,South,10.4,-,N/A,,Clear,180,2013-02-12 03:53:00
11:53 PM,71.1,66.0,84,30.10,10.0,South,11.5,-,N/A,,Clear,180,2013-02-12 04:53:00